TimePST,TemperatureF,Dew PointF,Humidity,Sea Level PressureIn,VisibilityMPH,Wind Direction,Wind SpeedMPH,Gust SpeedMPH,PrecipitationIn,Events,Conditions,WindDirDegrees,DateUTC
12:53 AM,30.0,12.0,47,30.38,10.0,Calm,Calm,-,N/A,,Clear,0,2013-01-05 08:53:00
1:53 AM,30.0,12.0,47,30.40,10.0,Calm,Calm,-,N/A,,Clear,0,2013-01-05 09:53:00
2:53 AM,28.0,12.0,51,30.41,10.0,WNW,4.6,-,N/A,,Clear,300,2013-01-05 10:53:00
3:53 AM,28.9,12.0,49,30.41,10.0,NW,4.6,-,N/A,,Clear,320,2013-01-05 11:53:00
4:53 AM,28.9,10.9,47,30.42,10.0,WNW,3.5,-,N/A,,Clear,290,2013-01-05 12:53:00
5:53 AM,28.0,10.9,49,30.44,10.0,Calm,Calm,-,N/A,,Clear,0,2013-01-05 13:53:00
6:53 AM,28.9,10.9,47,30.45,10.0,Calm,Calm,-,N/A,,Clear,0,2013-01-05 14:53:00
7:53 AM,30.9,10.9,43,30.48,10.0,NW,4.6,-,N/A,,Clear,310,2013-01-05 15:53:00
8:53 AM,39.0,10.0,30,30.48,10.0,Calm,Calm,-,N/A,,Clear,0,2013-01-05 16:53:00
9:53 AM,41.0,9.0,27,30.48,10.0,Calm,Calm,-,N/A,,Clear,0,2013-01-05 17:53:00
10:53 AM,43.0,10.0,26,30.46,10.0,SE,3.5,-,N/A,,Clear,130,2013-01-05 18:53:00
11:53 AM,46.0,8.1,21,30.41,10.0,SE,3.5,-,N/A,,Clear,130,2013-01-05 19:53:00
12:53 PM,48.0,7.0,19,30.38,10.0,ESE,3.5,-,N/A,,Clear,120,2013-01-05 20:53:00
1:53 PM,48.9,7.0,18,30.36,10.0,East,3.5,-,N/A,,Clear,100,2013-01-05 21:53:00
2:53 PM,50.0,7.0,18,30.35,10.0,ESE,3.5,-,N/A,,Clear,120,2013-01-05 22:53:00
3:53 PM,48.9,7.0,18,30.34,10.0,SSE,4.6,-,N/A,,Clear,150,2013-01-05 23:53:00
4:53 PM,46.9,7.0,20,30.34,10.0,Calm,Calm,-,N/A,,Clear,0,2013-01-06 00:53:00
5:53 PM,46.0,6.1,20,30.34,10.0,Calm,Calm,-,N/A,,Clear,0,2013-01-06 01:53:00
6:53 PM,45.0,6.1,20,30.33,10.0,Calm,Calm,-,N/A,,Clear,0,2013-01-06 02:53:00
7:53 PM,42.1,10.0,27,30.32,10.0,Calm,Calm,-,N/A,,Clear,0,2013-01-06 03:53:00
8:53 PM,39.0,12.0,33,30.31,10.0,Calm,Calm,-,N/A,,Clear,0,2013-01-06 04:53:00
9:53 PM,37.9,14.0,38,30.30,10.0,Calm,Calm,-,N/A,,Clear,0,2013-01-06 05:53:00
10:53 PM,37.0,14.0,39,30.29,9.0,Calm,Calm,-,N/A,,Clear,0,2013-01-06 06:53:00
11:53 PM,36.0,14.0,41,30.26,10.0,Calm,Calm,-,N/A,,Clear,0,2013-01-06 07:53:00